Total_Precipitation_Accumulation
0.01 0.01 0.03 0.04 0.04 0.04 0.03 0.04 0.05 0.04 0.01 0.02 0.01 0.00 0.00 0.01 0.04 0.03 0.10 0.21 0.16 0.08 0.05 0.02 0.02 0.03 0.02 0.06 0.12 0.14 0.18 0.18 0.20 0.15 0.08 0.03 0.01 0.01 0.00 0.01 0.00 0.01 0.02 0.03 0.05 0.06 0.00 0.00 0.00 0.00 0.00 0.00 0.00 0.05
0.02 0.02 0.03 0.03 0.03 0.04 0.03 0.04 0.05 0.04 0.03 0.02 0.00 0.00 0.00 0.02 0.04 0.02 0.09 0.14 0.16 0.12 0.08 0.02 0.00 0.00 0.01 0.07 0.15 0.19 0.20 0.19 0.12 0.08 0.03 0.02 0.02 0.01 0.00 0.01 0.00 0.00 0.00 0.01 0.00 0.00 0.00 0.00 0.00 0.00 0.00 0.00 0.00 0.00
0.02 0.02 0.02 0.03 0.02 0.03 0.02 0.04 0.06 0.04 0.02 0.02 0.01 0.01 0.01 0.03 0.02 0.03 0.05 0.11 0.11 0.12 0.07 0.03 0.02 0.02 0.00 0.02 0.14 0.25 0.18 0.16 0.15 0.05 0.08 0.04 0.04 0.02 0.01 0.00 0.00 0.00 0.00 0.00 0.00 0.00 0.00 0.00 0.00 0.00 0.00 0.00 0.00 0.00
0.03 0.03 0.03 0.03 0.02 0.03 0.03 0.04 0.04 0.04 0.03 0.02 0.02 0.02 0.02 0.02 0.01 0.01 0.03 0.07 0.17 0.16 0.09 0.09 0.02 0.02 0.03 0.03 0.18 0.33 0.26 0.17 0.18 0.15 0.11 0.12 0.05 0.02 0.01 0.00 0.00 0.00 0.00 0.00 0.00 0.00 0.00 0.00 0.00 0.00 0.00 0.00 0.00 0.00
0.06 0.05 0.04 0.03 0.02 0.02 0.04 0.03 0.03 0.03 0.03 0.03 0.04 0.03 0.05 0.06 0.05 0.02 0.00 0.01 0.10 0.28 0.17 0.18 0.03 0.00 0.01 0.01 0.17 0.41 0.49 0.41 0.26 0.28 0.16 0.09 0.03 0.01 0.00 0.00 0.00 0.00 0.00 0.00 0.00 0.00 0.00 0.00 0.00 0.00 0.00 0.00 0.00 0.00
0.07 0.05 0.04 0.04 0.02 0.02 0.02 0.02 0.02 0.02 0.03 0.04 0.04 0.07 0.07 0.08 0.08 0.01 0.09 0.13 0.17 0.19 0.19 0.14 0.04 0.00 0.00 0.01 0.06 0.30 0.40 0.41 0.33 0.29 0.21 0.09 0.03 0.06 0.04 0.01 0.00 0.00 0.00 0.00 0.00 0.00 0.00 0.00 0.00 0.00 0.00 0.00 0.00 0.00
0.06 0.04 0.03 0.03 0.02 0.01 0.02 0.02 0.02 0.02 0.02 0.02 0.02 0.04 0.08 0.06 0.03 0.02 0.18 0.33 0.21 0.10 0.11 0.08 0.03 0.01 0.00 0.00 0.00 0.13 0.38 0.47 0.37 0.30 0.16 0.12 0.08 0.11 0.06 0.00 0.00 0.00 0.00 0.00 0.00 0.00 0.00 0.00 0.00 0.00 0.00 0.00 0.00 0.00
0.08 0.05 0.03 0.02 0.01 0.02 0.02 0.02 0.02 0.01 0.01 0.00 0.00 0.04 0.06 0.04 0.01 0.02 0.04 0.08 0.08 0.10 0.04 0.05 0.01 0.02 0.01 0.04 0.09 0.12 0.40 0.57 0.50 0.34 0.14 0.06 0.05 0.11 0.08 0.01 0.00 0.00 0.00 0.00 0.00 0.00 0.00 0.00 0.00 0.00 0.00 0.00 0.00 0.01
0.07 0.04 0.02 0.02 0.01 0.01 0.02 0.02 0.01 0.00 0.00 0.00 0.00 0.02 0.02 0.02 0.03 0.10 0.21 0.13 0.07 0.18 0.10 0.01 0.00 0.01 0.01 0.06 0.08 0.07 0.19 0.46 0.45 0.34 0.22 0.21 0.14 0.10 0.02 0.00 0.00 0.00 0.00 0.00 0.00 0.00 0.00 0.00 0.00 0.00 0.00 0.00 0.00 0.00
0.04 0.02 0.02 0.02 0.01 0.01 0.02 0.01 0.00 0.00 0.00 0.00 0.00 0.03 0.06 0.09 0.24 0.39 0.50 0.19 0.12 0.09 0.07 0.03 0.01 0.01 0.00 0.01 0.02 0.02 0.04 0.24 0.30 0.30 0.31 0.23 0.16 0.12 0.02 0.00 0.00 0.00 0.00 0.00 0.00 0.00 0.00 0.00 0.00 0.00 0.00 0.00 0.00 0.00
0.04 0.02 0.02 0.02 0.01 0.02 0.02 0.00 0.00 0.00 0.00 0.00 0.01 0.02 0.09 0.23 0.53 0.40 0.47 0.20 0.14 0.03 0.02 0.01 0.00 0.01 0.00 0.00 0.01 0.00 0.01 0.02 0.10 0.17 0.19 0.24 0.18 0.05 0.00 0.00 0.00 0.00 0.00 0.00 0.00 0.00 0.00 0.00 0.00 0.00 0.00 0.00 0.00 0.00
0.05 0.02 0.02 0.02 0.02 0.03 0.02 0.00 0.00 0.00 0.00 0.01 0.01 0.05 0.18 0.32 0.40 0.18 0.23 0.09 0.03 0.01 0.00 0.01 0.00 0.00 0.00 0.00 0.00 0.00 0.00 0.00 0.01 0.06 0.15 0.10 0.04 0.00 0.00 0.00 0.00 0.00 0.00 0.00 0.00 0.00 0.00 0.00 0.01 0.01 0.00 0.00 0.00 0.00
0.09 0.05 0.04 0.06 0.04 0.03 0.02 0.00 0.00 0.00 0.00 0.00 0.00 0.13 0.14 0.16 0.22 0.05 0.08 0.02 0.00 0.00 0.00 0.01 0.00 0.00 0.00 0.00 0.00 0.00 0.00 0.00 0.00 0.01 0.06 0.11 0.01 0.00 0.00 0.00 0.00 0.00 0.03 0.01 0.01 0.00 0.00 0.01 0.04 0.06 0.03 0.01 0.00 0.00
0.10 0.11 0.12 0.13 0.10 0.03 0.02 0.00 0.00 0.01 0.00 0.00 0.02 0.07 0.08 0.10 0.06 0.08 0.04 0.00 0.00 0.00 0.00 0.01 0.01 0.00 0.00 0.00 0.00 0.00 0.00 0.00 0.00 0.00 0.00 0.00 0.00 0.00 0.00 0.00 0.00 0.00 0.00 0.01 0.05 0.04 0.02 0.04 0.12 0.09 0.08 0.07 0.03 0.01
0.12 0.14 0.15 0.13 0.11 0.05 0.01 0.00 0.01 0.00 0.00 0.00 0.02 0.04 0.05 0.05 0.03 0.03 0.02 0.00 0.00 0.00 0.00 0.00 0.00 0.00 0.00 0.00 0.00 0.00 0.00 0.00 0.00 0.00 0.00 0.00 0.00 0.00 0.00 0.00 0.00 0.00 0.00 0.00 0.00 0.01 0.01 0.01 0.01 0.01 0.01 0.01 0.01 0.01
0.16 0.18 0.17 0.15 0.08 0.04 0.01 0.00 0.00 0.00 0.00 0.00 0.01 0.02 0.03 0.00 0.00 0.01 0.00 0.00 0.00 0.00 0.00 0.00 0.00 0.00 0.00 0.00 0.01 0.00 0.00 0.00 0.00 0.00 0.00 0.00 0.00 0.00 0.00 0.00 0.00 0.00 0.00 0.00 0.00 0.00 0.00 0.00 0.00 0.01 0.02 0.02 0.02 0.02
0.12 0.11 0.15 0.11 0.04 0.03 0.02 0.01 0.01 0.00 0.00 0.01 0.01 0.00 0.01 0.00 0.00 0.01 0.01 0.00 0.00 0.00 0.00 0.05 0.09 0.02 0.01 0.01 0.00 0.00 0.00 0.00 0.00 0.00 0.00 0.00 0.00 0.00 0.00 0.00 0.00 0.00 0.00 0.00 0.00 0.00 0.00 0.00 0.00 0.00 0.00 0.00 0.00 0.01
0.06 0.07 0.11 0.08 0.05 0.01 0.00 0.01 0.01 0.01 0.00 0.00 0.00 0.00 0.00 0.00 0.00 0.01 0.02 0.03 0.03 0.05 0.08 0.18 0.10 0.09 0.02 0.00 0.00 0.00 0.00 0.00 0.00 0.00 0.00 0.00 0.00 0.00 0.00 0.00 0.00 0.00 0.00 0.00 0.00 0.00 0.00 0.00 0.00 0.00 0.00 0.00 0.00 0.00
0.06 0.10 0.09 0.07 0.03 0.01 0.00 0.00 0.00 0.00 0.00 0.00 0.00 0.00 0.00 0.00 0.00 0.00 0.02 0.05 0.06 0.08 0.18 0.25 0.17 0.07 0.00 0.00 0.00 0.00 0.00 0.00 0.00 0.00 0.00 0.00 0.00 0.00 0.00 0.00 0.00 0.00 0.00 0.00 0.00 0.00 0.00 0.00 0.00 0.00 0.00 0.00 0.00 0.00
0.12 0.16 0.11 0.04 0.01 0.00 0.01 0.00 0.00 0.00 0.00 0.00 0.00 0.00 0.00 0.00 0.00 0.00 0.01 0.05 0.10 0.20 0.29 0.25 0.08 0.03 0.01 0.01 0.02 0.02 0.00 0.00 0.00 0.00 0.00 0.00 0.00 0.00 0.00 0.00 0.00 0.00 0.00 0.00 0.00 0.00 0.00 0.00 0.00 0.00 0.00 0.00 0.00 0.00
0.09 0.08 0.07 0.01 0.00 0.00 0.00 0.00 0.00 0.00 0.00 0.00 0.00 0.01 0.01 0.00 0.00 0.00 0.03 0.09 0.20 0.31 0.20 0.11 0.03 0.02 0.03 0.04 0.04 0.03 0.01 0.01 0.00 0.00 0.00 0.00 0.00 0.00 0.00 0.00 0.00 0.00 0.00 0.00 0.00 0.00 0.00 0.00 0.00 0.00 0.00 0.00 0.00 0.00
0.04 0.04 0.01 0.00 0.00 0.00 0.00 0.00 0.00 0.00 0.00 0.00 0.00 0.01 0.01 0.01 0.01 0.02 0.04 0.13 0.20 0.11 0.04 0.04 0.06 0.06 0.04 0.04 0.06 0.06 0.05 0.03 0.01 0.00 0.00 0.00 0.00 0.00 0.00 0.00 0.00 0.00 0.00 0.00 0.00 0.00 0.00 0.00 0.00 0.00 0.00 0.00 0.00 0.00
0.03 0.00 0.00 0.00 0.00 0.00 0.00 0.00 0.00 0.00 0.00 0.00 0.01 0.00 0.00 0.01 0.01 0.02 0.06 0.06 0.06 0.06 0.06 0.05 0.05 0.10 0.12 0.08 0.06 0.04 0.05 0.06 0.04 0.02 0.01 0.00 0.00 0.00 0.00 0.00 0.00 0.00 0.00 0.00 0.00 0.00 0.00 0.00 0.00 0.00 0.00 0.00 0.00 0.00
0.04 0.05 0.03 0.03 0.02 0.01 0.00 0.00 0.00 0.00 0.00 0.00 0.00 0.00 0.00 0.00 0.01 0.02 0.03 0.02 0.03 0.05 0.05 0.06 0.06 0.06 0.09 0.13 0.16 0.13 0.09 0.07 0.05 0.06 0.08 0.07 0.04 0.02 0.01 0.00 0.00 0.00 0.00 0.00 0.00 0.00 0.00 0.00 0.00 0.00 0.00 0.00 0.00 0.00
0.21 0.11 0.04 0.03 0.01 0.00 0.00 0.00 0.00 0.00 0.00 0.00 0.00 0.00 0.00 0.00 0.01 0.01 0.01 0.01 0.03 0.05 0.05 0.06 0.06 0.07 0.08 0.09 0.10 0.13 0.16 0.16 0.13 0.09 0.09 0.12 0.10 0.09 0.09 0.06 0.02 0.00 0.00 0.00 0.00 0.00 0.00 0.00 0.00 0.00 0.00 0.00 0.00 0.03
0.15 0.03 0.02 0.00 0.00 0.00 0.00 0.00 0.00 0.00 0.00 0.00 0.00 0.00 0.00 0.01 0.01 0.01 0.00 0.00 0.02 0.03 0.04 0.04 0.05 0.06 0.06 0.09 0.11 0.14 0.16 0.16 0.14 0.10 0.11 0.18 0.16 0.13 0.10 0.09 0.09 0.07 0.04 0.03 0.04 0.03 0.04 0.04 0.03 0.03 0.03 0.03 0.07 0.17
0.07 0.02 0.01 0.00 0.00 0.00 0.00 0.00 0.00 0.00 0.00 0.00 0.00 0.00 0.00 0.00 0.00 0.00 0.00 0.00 0.00 0.01 0.03 0.04 0.05 0.06 0.07 0.08 0.11 0.13 0.16 0.19 0.17 0.11 0.13 0.19 0.22 0.22 0.18 0.12 0.08 0.06 0.10 0.15 0.13 0.11 0.10 0.11 0.11 0.12 0.15 0.17 0.17 0.18
0.01 0.00 0.00 0.00 0.00 0.00 0.00 0.00 0.00 0.00 0.00 0.00 0.00 0.00 0.00 0.00 0.00 0.00 0.00 0.00 0.00 0.00 0.01 0.03 0.05 0.07 0.08 0.08 0.10 0.14 0.16 0.19 0.20 0.19 0.20 0.24 0.30 0.36 0.36 0.31 0.29 0.29 0.27 0.24 0.26 0.27 0.25 0.23 0.22 0.22 0.24 0.23 0.20 0.21
0.01 0.00 0.00 0.00 0.00 0.00 0.00 0.00 0.00 0.00 0.00 0.00 0.00 0.00 0.00 0.00 0.00 0.00 0.00 0.00 0.00 0.00 0.00 0.02 0.03 0.05 0.07 0.08 0.10 0.12 0.16 0.20 0.21 0.18 0.14 0.14 0.21 0.31 0.40 0.43 0.45 0.47 0.42 0.36 0.35 0.32 0.27 0.25 0.26 0.27 0.27 0.27 0.26 0.26
0.00 0.00 0.00 0.00 0.00 0.00 0.00 0.00 0.00 0.00 0.00 0.00 0.00 0.00 0.00 0.00 0.00 0.00 0.00 0.00 0.00 0.00 0.00 0.01 0.03 0.05 0.06 0.08 0.10 0.12 0.14 0.16 0.19 0.19 0.16 0.14 0.17 0.24 0.33 0.38 0.43 0.47 0.47 0.43 0.41 0.45 0.44 0.43 0.42 0.41 0.36 0.34 0.32 0.30
0.00 0.00 0.00 0.00 0.00 0.00 0.00 0.00 0.00 0.00 0.00 0.00 0.00 0.00 0.00 0.00 0.00 0.00 0.00 0.00 0.00 0.01 0.01 0.01 0.02 0.03 0.05 0.08 0.12 0.15 0.16 0.18 0.21 0.24 0.25 0.27 0.30 0.33 0.38 0.44 0.46 0.46 0.47 0.46 0.41 0.36 0.32 0.28 0.23 0.20 0.23 0.25 0.25 0.24
0.01 0.00 0.00 0.00 0.00 0.00 0.00 0.00 0.00 0.00 0.00 0.00 0.00 0.00 0.00 0.00 0.00 0.00 0.00 0.00 0.00 0.01 0.02 0.02 0.03 0.04 0.06 0.09 0.13 0.18 0.22 0.24 0.26 0.29 0.30 0.30 0.31 0.36 0.40 0.42 0.45 0.44 0.46 0.47 0.43 0.39 0.36 0.35 0.37 0.36 0.34 0.36 0.35 0.31
0.02 0.02 0.01 0.00 0.00 0.00 0.01 0.01 0.00 0.00 0.00 0.00 0.00 0.00 0.00 0.00 0.00 0.00 0.00 0.00 0.00 0.01 0.03 0.04 0.06 0.07 0.10 0.13 0.17 0.21 0.27 0.33 0.38 0.42 0.47 0.47 0.43 0.40 0.39 0.39 0.40 0.41 0.40 0.41 0.43 0.46 0.49 0.47 0.44 0.42 0.40 0.39 0.38 0.36